User: anonymous   Login
Location: Albany
(35.0000°S, 118.0000°E)
Time: 22:16:56
(UTC-04:00)
Language:

Cosmos 1346 Rocket - Orbit

View from above orbital plane
View from above orbital plane
View from above satellite
View from above satellite

Ground track
Ground track

The orbit data is extracted from the following two-line orbital elements,

1 13121U 82027B   17234.87091870  .00000684  00000-0  42261-4 0  9991
2 13121  81.1633  42.5857 0026953 314.3582  45.5433 15.08315364927035
Epoch (UTC): 22 August 2017 20:54:07
Eccentricity: 0.0026953
inclination: 81.1633°
perigee height: 523 km
apogee height: 560 km
right ascension of ascending node: 42.5857°
argument of perigee: 314.3582°
revolutions per day: 15.08315364
mean anomaly at epoch: 45.5433°
orbit number at epoch: 92703

The dashed part of the orbit path shows where the satellite is in the earth's shadow,  

DLR